[[{"header":{"parameterUnit":"m.s-1","parameterCategory":1,"la1":30.2991,"la2":30.254,"lo1":-89.0895,"lo2":-89.0444,"dy":0.0017,"dx":0.0017,"nx":28,"ny":28,"refTime":"2026-02-05T03:00:00:Z","depth":0,"parameterNumber":2,"parameterNumberName":"U-component_of_WINDS"},"data":[0,0,0,0,0,0,0,0,0,0,0,0,0,0,0,0,0,0,0,0,0,0,0,0,0,0,0,0,0,0,0,0,0,0,0,0,0,0,0,0,0,0,0,0,0,0,0,0,0,0,0,0,0,0,0,0,0,0,3.3896,3.3896,0,3.3949,3.395,3.395,3.3927,3.3926,3.3925,3.3923,3.3975,3.3977,3.398,0,0,0,0,0,0,0,0,0,0,0,0,0,3.3771,3.3774,3.3896,3.3896,3.3897,3.3949,3.395,3.395,3.3927,3.3926,3.3924,3.3923,3.3974,3.3977,3.398,0,0,0,0,0,0,0,0,0,0,0,0,0,3.3825,3.3775,3.3896,3.3892,3.3892,3.3949,3.395,3.3951,3.3928,3.3926,3.3924,3.3922,3.3973,3.3977,3.398,3.4043,0,0,3.3992,3.3994,0,0,0,0,0,0,0,0,3.3822,3.383,3.3892,3.3892,3.3893,3.393,3.3925,3.3981,3.3928,3.3914,3.3923,3.3921,3.3961,3.3966,3.398,3.4045,3.4047,3.3993,3.3995,3.3997,3.3998,0,0,0,0,0,0,0,3.3818,3.3827,3.3917,3.3893,3.3893,3.3887,3.3892,3.3935,3.3948,3.3915,3.3914,3.392,3.3961,3.3976,3.3981,3.4048,3.3992,3.3996,3.3998,3.4,3.4168,3.417,0,0,0,0,0,0,3.3815,3.3824,3.3915,3.3918,3.3852,3.3891,3.3897,3.392,3.3947,3.395,3.3922,3.3919,3.3971,3.3976,3.3983,3.4057,3.3996,3.4,3.4002,3.4166,3.4168,3.4171,0,0,0,0,0,0,3.3812,3.3823,3.3913,3.3871,3.3882,3.3895,3.3921,3.3922,3.3937,3.3952,3.3954,3.3936,3.3969,3.3977,3.4028,3.4059,3.4002,3.4005,3.4163,3.4166,3.4169,3.4208,0,0,0,0,0,0,3.3809,3.3823,3.3847,3.3872,3.3884,3.3959,3.3923,3.3924,3.3944,3.3941,3.3966,3.3968,3.3968,3.4023,3.4032,3.4063,3.4008,3.416,3.4165,3.4168,3.4204,3.4212,3.4219,0,0,0,0,0,3.3805,3.3855,3.3848,3.3859,3.3915,3.396,3.3967,3.3968,3.3947,3.3971,3.3981,3.3967,3.4054,3.4028,3.4039,3.4071,3.4158,3.4163,3.4168,3.42,3.421,3.4219,0,0,0,0,0,0,3.3832,3.3858,3.3851,3.3911,3.3934,3.3956,3.3987,3.3978,3.4007,3.4002,3.4001,3.4007,3.406,3.4071,3.4041,3.4133,3.4103,3.411,3.4124,3.4134,3.4141,3.4137,3.4012,0,0,0,0,0,3.3845,3.3881,3.3901,3.3952,3.3964,3.3974,3.3993,3.3992,3.4015,3.4024,3.4038,3.406,3.4093,3.4114,3.4144,3.4206,3.421,3.4233,3.4241,3.4247,3.4253,3.4286,3.4296,3.4186,3.4186,3.4186,0,0,3.3872,3.3891,3.3913,3.3958,3.3976,3.4012,3.3982,3.4021,3.4047,3.403,3.4079,3.409,3.4115,3.4171,3.4197,3.4182,3.4285,3.4253,3.4258,3.426,3.4292,3.4302,3.4312,3.419,3.4189,3.4189,0,0,3.394,3.3958,3.4003,3.4021,3.4049,3.4055,3.4066,3.409,3.4097,3.4147,3.4135,3.4166,3.4222,3.424,3.4256,3.4333,3.4321,3.4343,3.4382,3.4414,3.4422,3.443,3.4457,3.4466,3.4349,3.4349,3.4349,0,3.397,3.4025,3.4026,3.4067,3.4087,3.4074,3.4119,3.4136,3.4172,3.4186,3.4169,3.424,3.4255,3.4316,3.4335,3.4349,3.436,3.4339,3.4421,3.4429,3.4436,3.4461,3.4472,3.4351,3.4351,3.4351,3.4351,0,3.406,3.4098,3.4131,3.4167,3.419,3.4233,3.424,3.4264,3.4261,3.4269,3.432,3.4338,3.4373,3.4387,3.4384,3.4448,3.4437,3.4421,3.4391,3.4449,3.4473,3.4482,3.4355,3.4354,3.4353,3.4353,0,0,3.4145,3.4183,3.4194,3.4211,3.4241,3.427,3.4312,3.4347,3.4367,3.4392,3.4427,3.4475,3.4461,3.4479,3.4478,3.4507,3.4566,3.4487,3.4488,3.45,3.4636,3.4647,3.4659,3.4559,3.456,3.4562,3.4634,0,3.4214,3.4289,3.4292,3.4359,3.4394,3.4384,3.442,3.4442,3.4451,3.4481,3.449,3.4525,3.4503,3.4514,3.4542,3.4553,3.4593,3.4548,3.4589,3.4591,3.4583,3.4671,3.4683,3.475,3.4643,3.4645,3.4646,0,3.4305,3.4335,3.4406,3.4432,3.4447,3.4479,3.4512,3.4541,3.4566,3.457,3.4592,3.4587,3.4629,3.4599,3.4656,3.4625,3.4643,3.4651,3.4653,3.4656,3.4621,3.4676,3.4772,3.4781,3.4661,3.4659,3.4658,0,3.4359,3.4417,3.4467,3.4482,3.4513,3.4536,3.455,3.4573,3.4594,3.4622,3.4636,3.4668,3.4686,3.471,3.4714,3.4692,3.4772,3.4741,3.4776,3.4776,3.4792,3.4791,3.4891,3.4805,3.4805,3.4805,3.4805,0,3.4436,3.448,3.4492,3.4523,3.4571,3.4575,3.4622,3.4635,3.4655,3.4688,3.468,3.471,3.4714,3.4745,3.4749,3.4795,3.4803,3.4808,3.4808,3.4808,3.4807,3.4818,3.4813,3.4808,3.4807,3.4806,3.4806,0,3.4504,3.4514,3.4568,3.4594,3.4602,3.4636,3.4658,3.4687,3.4696,3.4737,3.4746,3.4759,3.4796,3.4803,3.4845,3.4847,3.4903,3.4899,3.4895,3.4894,3.4928,3.4924,3.5038,3.5053,3.4958,3.4959,3.496,0,3.4552,3.4586,3.4616,3.4637,3.4653,3.4688,3.471,3.4714,3.4737,3.4768,3.4794,3.483,3.4858,3.4917,3.4929,3.4962,3.4958,3.4996,3.4963,3.4962,3.4958,3.4955,3.4958,3.5002,3.5003,3.5003,3.5004,0,3.4636,3.4639,3.4672,3.4706,3.4733,3.476,3.4785,3.4803,3.4811,3.4837,3.4875,3.4897,3.4942,3.4977,3.501,3.5023,3.5015,3.5015,3.5024,3.5024,3.502,3.5022,3.4911,3.5012,3.5011,3.501,3.501,3.501,3.4695,3.4724,3.475,3.4786,3.4807,3.4831,3.486,3.4873,3.4905,3.4942,3.4942,3.4984,3.5007,3.5051,3.5066,3.5098,3.5086,3.51,3.5103,3.5106,3.5109,3.5016,3.5104,3.5104,3.5104,3.5104,3.5103,0,3.4777,3.4794,3.4828,3.4864,3.4893,3.4884,3.4912,3.4936,3.4973,3.4997,3.5026,3.5069,3.5104,3.512,3.5154,3.5176,3.5173,3.5185,3.5183,3.5186,3.5119,3.5107,3.5187,3.5187,3.5187,3.5187,3.5187,3.5187,3.4824,3.4873,3.488,3.4939,3.4955,3.4997,3.5013,3.5036,3.5055,3.5104,3.5133,3.5144,3.5165,3.52,3.5231,3.5235,3.5247,3.5261,3.5263,3.5199,3.5191,3.5183,3.5171,3.5264,3.5264,3.5327,3.5328,3.5328]},{"header":{"parameterUnit":"m.s-1","parameterCategory":1,"la1":30.2991,"la2":30.254,"lo1":-89.0895,"lo2":-89.0444,"dy":0.0017,"dx":0.0017,"nx":28,"ny":28,"refTime":"2026-02-05T03:00:00:Z","depth":0,"parameterNumber":3,"parameterNumberName":"V-component_of_WINDS"},"data":[0,0,0,0,0,0,0,0,0,0,0,0,0,0,0,0,0,0,0,0,0,0,0,0,0,0,0,0,0,0,0,0,0,0,0,0,0,0,0,0,0,0,0,0,0,0,0,0,0,0,0,0,0,0,0,0,0,0,-6.2265,-6.2266,0,-6.242,-6.2422,-6.2423,-6.2364,-6.2361,-6.2357,-6.2354,-6.2509,-6.2516,-6.2523,0,0,0,0,0,0,0,0,0,0,0,0,0,-6.1914,-6.192,-6.2265,-6.2267,-6.2268,-6.242,-6.2422,-6.2424,-6.2365,-6.236,-6.2356,-6.2352,-6.2506,-6.2515,-6.2524,0,0,0,0,0,0,0,0,0,0,0,0,0,-6.2067,-6.1923,-6.2264,-6.2257,-6.2258,-6.2419,-6.2422,-6.2424,-6.2366,-6.236,-6.2355,-6.235,-6.2503,-6.2514,-6.2525,-6.2701,0,0,-6.2559,-6.2564,0,0,0,0,0,0,0,0,-6.2058,-6.208,-6.2256,-6.2258,-6.2259,-6.2367,-6.2355,-6.2517,-6.2367,-6.2325,-6.2354,-6.2347,-6.2466,-6.248,-6.252,-6.2708,-6.2715,-6.256,-6.2567,-6.2572,-6.2575,0,0,0,0,0,0,0,-6.2048,-6.2073,-6.2326,-6.2259,-6.2261,-6.2245,-6.2261,-6.2385,-6.2423,-6.2328,-6.2324,-6.2344,-6.2465,-6.251,-6.2524,-6.2717,-6.256,-6.257,-6.2577,-6.2581,-6.3057,-6.3063,0,0,0,0,0,0,-6.2037,-6.2065,-6.2321,-6.233,-6.2144,-6.2256,-6.2274,-6.2338,-6.2422,-6.2429,-6.2348,-6.234,-6.2493,-6.2511,-6.2529,-6.2741,-6.2572,-6.2582,-6.2589,-6.3051,-6.3059,-6.3065,0,0,0,0,0,0,-6.203,-6.2061,-6.2315,-6.2197,-6.2228,-6.2268,-6.234,-6.2344,-6.2388,-6.2437,-6.2443,-6.2387,-6.249,-6.2513,-6.2659,-6.2745,-6.2587,-6.2598,-6.3044,-6.3054,-6.3062,-6.3165,0,0,0,0,0,0,-6.202,-6.2058,-6.2126,-6.2199,-6.2234,-6.2444,-6.2346,-6.2351,-6.2408,-6.2399,-6.2475,-6.2482,-6.2487,-6.2643,-6.267,-6.2758,-6.2606,-6.3037,-6.3049,-6.3059,-6.3154,-6.3177,-6.3196,0,0,0,0,0,-6.2008,-6.2148,-6.213,-6.2161,-6.232,-6.2449,-6.2469,-6.2474,-6.2415,-6.2483,-6.2515,-6.2479,-6.2731,-6.2658,-6.2689,-6.2781,-6.3031,-6.3045,-6.3058,-6.3145,-6.3172,-6.3195,0,0,0,0,0,0,-6.2084,-6.2158,-6.2138,-6.2307,-6.2372,-6.2439,-6.2525,-6.2502,-6.2585,-6.2573,-6.2574,-6.2591,-6.2742,-6.2776,-6.2693,-6.2955,-6.2872,-6.2892,-6.2928,-6.2954,-6.2975,-6.2963,-6.2616,0,0,0,0,0,-6.2121,-6.222,-6.2278,-6.2421,-6.2455,-6.2485,-6.2541,-6.2539,-6.2606,-6.2633,-6.2675,-6.274,-6.2834,-6.2896,-6.2985,-6.3159,-6.3174,-6.3237,-6.3258,-6.3274,-6.3292,-6.3387,-6.3415,-6.3109,-6.3109,-6.3109,0,0,-6.2197,-6.2249,-6.2312,-6.2438,-6.2488,-6.259,-6.2508,-6.2619,-6.2695,-6.2649,-6.279,-6.2823,-6.2896,-6.3057,-6.313,-6.309,-6.338,-6.3291,-6.3304,-6.3313,-6.3403,-6.3432,-6.3458,-6.3118,-6.3116,-6.3115,0,0,-6.2388,-6.2438,-6.2563,-6.2615,-6.2693,-6.2712,-6.2742,-6.2812,-6.2833,-6.2975,-6.2943,-6.3032,-6.3193,-6.3247,-6.3296,-6.3508,-6.3478,-6.3536,-6.3645,-6.3737,-6.3761,-6.3782,-6.3858,-6.3886,-6.3554,-6.3554,-6.3554,0,-6.2472,-6.2626,-6.2629,-6.2744,-6.28,-6.2765,-6.2891,-6.2941,-6.3044,-6.3083,-6.3037,-6.324,-6.3286,-6.346,-6.3512,-6.3552,-6.3586,-6.3528,-6.3758,-6.3779,-6.3799,-6.3871,-6.39,-6.356,-6.356,-6.3559,-6.3558,0,-6.2726,-6.2833,-6.2924,-6.3026,-6.3092,-6.3212,-6.3233,-6.3299,-6.3292,-6.3315,-6.346,-6.3515,-6.3615,-6.3655,-6.3648,-6.3828,-6.3801,-6.3756,-6.3673,-6.3835,-6.3903,-6.3931,-6.357,-6.3568,-6.3566,-6.3564,0,0,-6.2969,-6.3072,-6.3106,-6.3152,-6.3235,-6.3317,-6.3435,-6.3534,-6.3591,-6.3663,-6.3762,-6.39,-6.3859,-6.3914,-6.3913,-6.3994,-6.4159,-6.394,-6.3941,-6.3979,-6.4361,-6.4394,-6.4426,-6.414,-6.4145,-6.415,-6.4355,0,-6.3167,-6.3376,-6.3382,-6.3572,-6.3671,-6.3639,-6.3742,-6.3804,-6.3829,-6.3915,-6.3942,-6.404,-6.3979,-6.4012,-6.4091,-6.4122,-6.4236,-6.4108,-6.4231,-6.4236,-6.4215,-6.4462,-6.4497,-6.4688,-6.4381,-6.4386,-6.4389,0,-6.3426,-6.3508,-6.3709,-6.3779,-6.382,-6.3913,-6.4004,-6.4087,-6.4157,-6.4169,-6.4231,-6.4218,-6.4337,-6.425,-6.4414,-6.4327,-6.4378,-6.4401,-6.4408,-6.442,-6.4322,-6.4481,-6.4749,-6.4778,-6.4431,-6.4428,-6.4425,0,-6.3585,-6.3744,-6.3885,-6.3925,-6.4011,-6.4076,-6.4114,-6.4179,-6.4238,-6.4317,-6.4356,-6.4447,-6.4498,-6.4569,-6.458,-6.4516,-6.4745,-6.4659,-6.4759,-6.4759,-6.4809,-6.4805,-6.509,-6.4841,-6.484,-6.484,-6.4839,0,-6.3805,-6.3929,-6.3958,-6.4044,-6.4182,-6.4188,-6.4323,-6.4356,-6.4414,-6.4506,-6.4483,-6.4569,-6.4579,-6.4668,-6.4678,-6.4813,-6.4835,-6.4848,-6.4849,-6.4851,-6.4849,-6.4884,-6.4871,-6.4847,-6.4846,-6.4844,-6.4843,0,-6.4005,-6.4029,-6.4181,-6.4249,-6.4269,-6.4368,-6.4426,-6.4509,-6.4531,-6.4648,-6.4675,-6.4711,-6.4814,-6.4833,-6.4954,-6.4961,-6.5122,-6.5109,-6.5099,-6.5098,-6.5197,-6.5187,-6.5514,-6.5557,-6.5279,-6.5282,-6.5284,0,-6.4145,-6.424,-6.4319,-6.438,-6.4422,-6.4519,-6.458,-6.4589,-6.4653,-6.474,-6.4812,-6.4913,-6.4995,-6.5162,-6.5198,-6.529,-6.528,-6.5388,-6.5294,-6.5292,-6.5282,-6.5277,-6.5286,-6.5406,-6.5409,-6.5412,-6.5414,0,-6.439,-6.4398,-6.4487,-6.4581,-6.4655,-6.4729,-6.4799,-6.4849,-6.4868,-6.4941,-6.5047,-6.5111,-6.5236,-6.5337,-6.5429,-6.5467,-6.5444,-6.5443,-6.5471,-6.5474,-6.5464,-6.5471,-6.5149,-6.5435,-6.5433,-6.5432,-6.5431,-6.543,-6.4565,-6.4648,-6.4717,-6.4817,-6.4871,-6.4938,-6.5019,-6.5052,-6.5142,-6.5245,-6.5244,-6.5361,-6.5428,-6.555,-6.5594,-6.5685,-6.565,-6.5691,-6.5701,-6.5711,-6.5721,-6.545,-6.5702,-6.5701,-6.57,-6.57,-6.5699,0,-6.4809,-6.4853,-6.4945,-6.5045,-6.5123,-6.5096,-6.5172,-6.5239,-6.5343,-6.5408,-6.5489,-6.5611,-6.5709,-6.5753,-6.5849,-6.5914,-6.5905,-6.5939,-6.5934,-6.5943,-6.5746,-6.5712,-6.5944,-6.5944,-6.5944,-6.5944,-6.5944,-6.5943,-6.4946,-6.5086,-6.5101,-6.5267,-6.5308,-6.5424,-6.547,-6.5531,-6.5583,-6.5721,-6.5803,-6.5831,-6.5888,-6.5988,-6.6076,-6.6086,-6.6123,-6.6162,-6.6167,-6.5982,-6.5957,-6.5933,-6.5902,-6.6169,-6.617,-6.6357,-6.6358,-6.636]}]]